Spencer, IA

1:44 PM CST on December 05, 2016 (GMT -0600)
Spencer Municipal

Weather History for KSPW - June, 2013

Change the Weather History Date:

Saturday, June 8, 2013

  Actual Average Record
Temperature  
Mean Temperature 56 °F -  
Max Temperature 61 °F 78 °F 103 °F (1985)
Min Temperature 51 °F 56 °F 38 °F (1978)
Degree Days  
Heating Degree Days 9    
Growing Degree Days 6 (Base 50)    
Moisture  
Dew Point 55 °F    
Average Humidity 87    
Maximum Humidity 94    
Minimum Humidity 75    
Precipitation  
Precipitation 1.31 in - - ()
Sea Level Pressure  
Sea Level Pressure 29.83 in    
Wind  
Wind Speed 12 mph (ESE)    
Max Wind Speed 24 mph    
Max Gust Speed 33 mph    
Visibility 6 miles    
Events Rain    
Averages and records for this station are not official NWS values.
T = Trace of Precipitation, MM = Missing Value Source: NWS Daily Summary

Daily Weather History Graph

Daily Weather History Graph

Search for Another Location

Airport or City:

Trip Planner

Search our weather history database for the weather conditions in past years. The results will help you decide how hot, cold, wet, or windy it might be!

Date:

Astronomy

Jun. 08, 2013 Rise Set
Actual Time 5:41 AM CDT 8:58 PM CDT
Civil Twilight 5:06 AM CDT 9:34 PM CDT
Nautical Twilight 4:20 AM CDT 10:19 PM CDT
Astronomical Twilight 3:24 AM CDT 11:15 PM CDT
Moon 5:51 AM CDT (6/8) 9:00 PM CDT (6/8)
Length of Visible Light 16h 28m
Length of Day
15h 17m
New Moon, 0% of the Moon is Illuminated
Jun 8
New Moon
Jun 16
First Quarter
Jun 23
Full
Jun 29
Last Quarter
Jul 8
New

Hourly Weather History & Observations

Time (CDT) Temp. Dew Point Humidity Pressure Visibility Wind Dir Wind Speed Gust Speed Precip Events Conditions
12:53 AM 53.1 °F 48.0 °F 83% 29.92 in 10.0 mi SE 5.8 mph - N/A   Clear
1:53 AM 53.1 °F 48.0 °F 83% 29.91 in 10.0 mi SE 4.6 mph - N/A   Clear
2:53 AM 52.0 °F 48.0 °F 86% 29.91 in 10.0 mi SSE 5.8 mph - N/A   Clear
3:53 AM 51.1 °F 46.9 °F 86% 29.91 in 10.0 mi SE 4.6 mph - N/A   Partly Cloudy
4:53 AM 51.1 °F 48.0 °F 89% 29.89 in 10.0 mi ESE 6.9 mph - N/A   Scattered Clouds
5:53 AM 53.1 °F 48.0 °F 83% 29.86 in 8.0 mi SE 8.1 mph - N/A   Partly Cloudy
6:53 AM 55.0 °F 48.9 °F 80% 29.88 in 10.0 mi SSE 6.9 mph - N/A   Mostly Cloudy
7:53 AM 55.9 °F 50.0 °F 80% 29.88 in 10.0 mi SE 9.2 mph - N/A   Clear
8:53 AM 57.9 °F 51.1 °F 78% 29.89 in 10.0 mi SE 8.1 mph - N/A   Overcast
9:53 AM 59.0 °F 52.0 °F 78% 29.89 in 10.0 mi SE 6.9 mph - 0.00 in   Overcast
10:53 AM 61.0 °F 53.1 °F 75% 29.87 in 10.0 mi SE 6.9 mph - 0.00 in Rain Light Rain
11:53 AM 61.0 °F 55.0 °F 81% 29.87 in 4.0 mi SSE 9.2 mph - 0.04 in Rain Rain
12:53 PM 59.0 °F 55.9 °F 90% 29.87 in 2.0 mi SE 11.5 mph - 0.11 in Rain Heavy Rain
1:13 PM 60.8 °F 55.4 °F 82% 29.86 in 3.0 mi ESE 12.7 mph - 0.07 in Rain Rain
1:23 PM 60.8 °F 55.4 °F 82% 29.85 in 2.5 mi ESE 16.1 mph - 0.09 in Rain Rain
1:30 PM 60.8 °F 57.2 °F 88% 29.85 in 3.0 mi ESE 15.0 mph - 0.10 in Rain Rain
1:48 PM 60.8 °F 57.2 °F 88% 29.85 in 2.5 mi ESE 12.7 mph 19.6 mph 0.16 in Rain Heavy Rain
1:53 PM 60.1 °F 57.0 °F 90% 29.86 in 2.5 mi ESE 13.8 mph - 0.18 in Rain Rain
2:09 PM 60.8 °F 57.2 °F 88% 29.84 in 3.0 mi ESE 16.1 mph - 0.04 in Rain Rain
2:25 PM 60.8 °F 57.2 °F 88% 29.84 in 2.5 mi ESE 13.8 mph 23.0 mph 0.09 in Rain Heavy Rain
2:53 PM 60.1 °F 57.0 °F 90% 29.84 in 3.0 mi ESE 17.3 mph - 0.16 in Rain Rain
3:13 PM 60.8 °F 57.2 °F 88% 29.83 in 2.5 mi ESE 17.3 mph 25.3 mph 0.06 in Rain Rain
3:22 PM 60.8 °F 57.2 °F 88% 29.83 in 3.0 mi ESE 16.1 mph 25.3 mph 0.08 in Rain Rain
3:53 PM 60.1 °F 57.9 °F 93% 29.83 in 4.0 mi ESE 16.1 mph - 0.12 in Rain Rain
4:53 PM 60.1 °F 57.9 °F 93% 29.82 in 5.0 mi ESE 15.0 mph 26.5 mph 0.10 in Rain Light Rain
5:53 PM 60.1 °F 57.0 °F 90% 29.80 in 4.0 mi ESE 23.0 mph 26.5 mph 0.10 in Rain Rain
6:01 PM 60.8 °F 57.2 °F 88% 29.80 in 4.0 mi ESE 18.4 mph 24.2 mph 0.01 in Rain Light Rain
6:43 PM 60.8 °F 57.2 °F 88% 29.80 in 3.0 mi ESE 17.3 mph - 0.07 in Rain Rain
6:53 PM 60.1 °F 57.9 °F 93% 29.80 in 4.0 mi ESE 15.0 mph - 0.09 in Rain Rain
7:04 PM 60.8 °F 57.2 °F 88% 29.80 in 2.0 mi ESE 16.1 mph 25.3 mph 0.06 in Rain Heavy Rain
7:19 PM 60.8 °F 57.2 °F 88% 29.79 in 2.0 mi ESE 23.0 mph 29.9 mph 0.12 in Rain Rain
7:27 PM 60.8 °F 57.2 °F 88% 29.79 in 3.0 mi ESE 19.6 mph 29.9 mph 0.13 in Rain Light Rain
7:53 PM 60.1 °F 57.0 °F 90% 29.79 in 6.0 mi ESE 18.4 mph 26.5 mph 0.15 in Rain Light Rain
8:01 PM 60.8 °F 57.2 °F 88% 29.79 in 4.0 mi ESE 19.6 mph 26.5 mph 0.02 in Rain Rain
8:14 PM 59.0 °F 57.2 °F 94% 29.78 in 4.0 mi ESE 19.6 mph 28.8 mph 0.05 in Rain Heavy Rain
8:21 PM 59.0 °F 55.4 °F 88% 29.78 in 3.0 mi ESE 24.2 mph 31.1 mph 0.07 in Rain Rain
8:53 PM 59.0 °F 55.9 °F 90% 29.78 in 10.0 mi East 19.6 mph 27.6 mph 0.08 in Rain Light Rain
9:53 PM 59.0 °F 55.9 °F 90% 29.76 in 5.0 mi East 24.2 mph 31.1 mph 0.15 in Rain Rain
10:29 PM 60.8 °F 57.2 °F 88% 29.75 in 8.0 mi East 24.2 mph 33.4 mph 0.02 in Rain Light Rain
10:53 PM 60.1 °F 57.0 °F 90% 29.74 in 10.0 mi East 21.9 mph 29.9 mph 0.02 in Rain Light Rain
11:22 PM 60.8 °F 57.2 °F 88% 29.74 in 10.0 mi ESE 20.7 mph 29.9 mph 0.00 in Rain Light Rain
11:53 PM 60.1 °F 57.0 °F 90% 29.73 in 9.0 mi ESE 23.0 mph 29.9 mph 0.01 in Rain Light Rain